Tracking 20241 objects as of 26-Jan-2020
HD Live streaming from Space Station
objects crossing your sky now

COSMOS 2251 DEB

Track COSMOS 2251 DEB now!
10-day predictions


NORAD ID: 33930
Int'l Code: 1993-036EK
Perigee: 725.0 km
Apogee: 763.9 km
Inclination: 74.0 °
Period: 99.6 minutes
Semi major axis: 7115 km
RCS: 0.0731 m2 (small)
Launch date: June 16, 1993
Source: Commonwealth of Independent States (former USSR) (CIS)
Launch site: PLESETSK MISSILE AND SPACE COMPLEX (PKMTR)

Note: This is SATELLITE DEBRIS
aabbcc
Your satellite tracking list
Your tracking list is empty




NASA's NSSDC Master Catalog

Two Line Element Set (TLE):
1 33930U 93036EK  20026.30652994 +.00000923 +00000-0 +26297-3 0  9990
2 33930 074.0280 213.1974 0027291 036.0369 026.1557 14.46440739574763
Source of the keplerian elements: AFSPC